Location: ???? ??
(36.0534°N, 43.5630°E)
Time: 15:03:14
(UTC+00:00)

Cosmos 2184 Rocket - Pass Details

Date: 18 September 2019
Orbit: 959 x 1002 km, 82.9° (Epoch: 18 October)

Event Time Altitude Azimuth Distance (km) Brightness Sun altitude
Rises 15:31:40 0° 359° (N) 3,667 7.1 -5.3°
Reaches altitude 10° 15:34:16 10° 5° (N) 2,722 6.4 -5.9°
Maximum altitude 15:40:17 49° 80° (E) 1,247 4.2 -7.1°
Drops below altitude 10° 15:46:19 10° 154° (SSE) 2,735 6.0 -8.3°
Sets 15:48:56 0° 160° (SSE) 3,686 6.7 -8.8°
